Time,TemperatureF,DewpointF,PressureIn,WindDirection,WindDirectionDegrees,WindSpeedMPH,WindSpeedGustMPH,Humidity,HourlyPrecipIn,Conditions,Clouds,dailyrainin,SoftwareType,DateUTC
2013-02-09 00:00:00,11.9,11.0,29.52,NW,315,2.0,13.0,93,0.00,,,0.00,Rainwise IP-100,2013-02-09 05:00:00,
2013-02-09 00:05:00,11.9,11.0,29.53,WNW,292,4.0,11.0,93,0.00,,,0.00,Rainwise IP-100,2013-02-09 05:05:00,
2013-02-09 00:10:00,11.8,11.0,29.53,NW,315,7.0,7.0,93,0.00,,,0.00,Rainwise IP-100,2013-02-09 05:10:00,
2013-02-09 00:15:00,11.7,11.0,29.53,SSE,157,1.0,12.0,93,0.00,,,0.00,Rainwise IP-100,2013-02-09 05:15:00,
2013-02-09 00:20:00,11.7,11.0,29.52,West,270,4.0,20.0,93,0.00,,,0.00,Rainwise IP-100,2013-02-09 05:20:00,
2013-02-09 00:25:00,11.6,11.0,29.52,North,360,2.0,10.0,93,0.00,,,0.00,Rainwise IP-100,2013-02-09 05:25:00,
2013-02-09 00:30:00,11.5,11.0,29.52,WSW,247,2.0,9.0,93,0.00,,,0.00,Rainwise IP-100,2013-02-09 05:30:00,
2013-02-09 00:35:00,11.5,11.0,29.50,North,360,3.0,10.0,93,0.00,,,0.00,Rainwise IP-100,2013-02-09 05:35:00,
2013-02-09 00:40:00,11.4,11.0,29.50,NW,315,6.0,14.0,93,0.00,,,0.00,Rainwise IP-100,2013-02-09 05:40:00,
2013-02-09 00:45:00,11.3,11.0,29.50,NW,315,2.0,12.0,93,0.00,,,0.00,Rainwise IP-100,2013-02-09 05:45:00,
2013-02-09 00:50:00,11.2,11.0,29.50,East,90,2.0,11.0,93,0.00,,,0.00,Rainwise IP-100,2013-02-09 05:50:00,
2013-02-09 00:55:00,11.1,11.0,29.50,WSW,247,4.0,14.0,93,0.00,,,0.00,Rainwise IP-100,2013-02-09 05:55:00,
2013-02-09 01:00:00,11.1,11.0,29.49,ESE,112,1.0,9.0,93,0.00,,,0.00,Rainwise IP-100,2013-02-09 06:00:00,
2013-02-09 01:05:00,10.9,8.0,29.50,West,270,7.0,11.0,92,0.00,,,0.00,Rainwise IP-100,2013-02-09 06:05:00,
2013-02-09 01:10:00,10.8,8.0,29.49,NW,315,3.0,11.0,92,0.00,,,0.00,Rainwise IP-100,2013-02-09 06:10:00,
2013-02-09 01:15:00,10.7,8.0,29.48,NNW,337,3.0,15.0,92,0.00,,,0.00,Rainwise IP-100,2013-02-09 06:15:00,
2013-02-09 01:20:00,10.6,8.0,29.47,SSE,157,2.0,12.0,92,0.00,,,0.00,Rainwise IP-100,2013-02-09 06:20:00,
2013-02-09 01:25:00,10.5,8.0,29.46,East,90,2.0,13.0,92,0.00,,,0.00,Rainwise IP-100,2013-02-09 06:25:00,
2013-02-09 01:30:00,10.4,8.0,29.45,NNW,337,8.0,14.0,92,0.00,,,0.00,Rainwise IP-100,2013-02-09 06:30:00,
2013-02-09 01:35:00,10.3,8.0,29.45,North,360,1.0,10.0,92,0.00,,,0.00,Rainwise IP-100,2013-02-09 06:35:00,
2013-02-09 01:40:00,10.3,8.0,29.45,SSE,157,2.0,9.0,92,0.00,,,0.00,Rainwise IP-100,2013-02-09 06:40:00,
2013-02-09 01:45:00,10.1,8.0,29.43,East,90,2.0,10.0,92,0.00,,,0.00,Rainwise IP-100,2013-02-09 06:45:00,
2013-02-09 01:50:00,9.9,8.0,29.42,SSW,202,2.0,21.0,92,0.00,,,0.00,Rainwise IP-100,2013-02-09 06:50:00,
2013-02-09 01:55:00,9.8,8.0,29.42,ESE,112,1.0,14.0,92,0.00,,,0.00,Rainwise IP-100,2013-02-09 06:55:00,
2013-02-09 02:00:00,9.7,8.0,29.41,WSW,247,2.0,17.0,92,0.00,,,0.00,Rainwise IP-100,2013-02-09 07:00:00,
2013-02-09 02:05:00,9.6,8.0,29.41,NNW,337,2.0,13.0,92,0.00,,,0.00,Rainwise IP-100,2013-02-09 07:05:00,
2013-02-09 02:10:00,9.4,8.0,29.40,NNW,337,1.0,17.0,92,0.00,,,0.00,Rainwise IP-100,2013-02-09 07:10:00,
2013-02-09 02:15:00,9.2,8.0,29.39,NW,315,2.0,16.0,92,0.00,,,0.00,Rainwise IP-100,2013-02-09 07:15:00,
2013-02-09 02:20:00,9.1,8.0,29.37,North,360,2.0,15.0,92,0.00,,,0.00,Rainwise IP-100,2013-02-09 07:20:00,
2013-02-09 02:25:00,8.9,8.0,29.37,East,90,3.0,17.0,92,0.00,,,0.00,Rainwise IP-100,2013-02-09 07:25:00,
2013-02-09 02:30:00,8.9,8.0,29.36,NNW,337,12.0,15.0,92,0.00,,,0.00,Rainwise IP-100,2013-02-09 07:30:00,
2013-02-09 02:35:00,8.9,8.0,29.35,South,180,2.0,15.0,92,0.00,,,0.00,Rainwise IP-100,2013-02-09 07:35:00,
2013-02-09 02:40:00,8.8,8.0,29.36,East,90,2.0,13.0,92,0.00,,,0.00,Rainwise IP-100,2013-02-09 07:40:00,
2013-02-09 02:45:00,8.8,8.0,29.36,WNW,292,4.0,14.0,92,0.00,,,0.00,Rainwise IP-100,2013-02-09 07:45:00,
2013-02-09 02:50:00,8.8,8.0,29.34,NW,315,14.0,22.0,92,0.00,,,0.00,Rainwise IP-100,2013-02-09 07:50:00,
2013-02-09 02:55:00,8.8,8.0,29.33,East,90,9.0,17.0,92,0.00,,,0.00,Rainwise IP-100,2013-02-09 07:55:00,
2013-02-09 03:00:00,8.8,8.0,29.31,North,360,1.0,14.0,92,0.00,,,0.00,Rainwise IP-100,2013-02-09 08:00:00,
2013-02-09 03:05:00,8.9,8.0,29.32,NNW,337,4.0,17.0,92,0.00,,,0.00,Rainwise IP-100,2013-02-09 08:05:00,
2013-02-09 03:10:00,8.9,8.0,29.31,SW,225,4.0,16.0,92,0.00,,,0.00,Rainwise IP-100,2013-02-09 08:10:00,
2013-02-09 03:15:00,8.9,8.0,29.32,WNW,292,8.0,17.0,92,0.00,,,0.00,Rainwise IP-100,2013-02-09 08:15:00,
2013-02-09 03:20:00,8.9,8.0,29.32,WNW,292,2.0,16.0,92,0.00,,,0.00,Rainwise IP-100,2013-02-09 08:20:00,
2013-02-09 03:25:00,8.9,8.0,29.31,NNW,337,1.0,16.0,92,0.00,,,0.00,Rainwise IP-100,2013-02-09 08:25:00,
2013-02-09 03:30:00,8.9,8.0,29.30,North,360,5.0,19.0,92,0.00,,,0.00,Rainwise IP-100,2013-02-09 08:30:00,
2013-02-09 03:35:00,9.1,8.0,29.30,WNW,292,4.0,15.0,92,0.00,,,0.00,Rainwise IP-100,2013-02-09 08:35:00,
2013-02-09 03:40:00,9.1,8.0,29.30,North,360,9.0,18.0,92,0.00,,,0.00,Rainwise IP-100,2013-02-09 08:40:00,
2013-02-09 03:45:00,9.2,8.0,29.29,WSW,247,5.0,11.0,92,0.00,,,0.00,Rainwise IP-100,2013-02-09 08:45:00,
2013-02-09 03:50:00,9.2,8.0,29.28,ESE,112,2.0,19.0,92,0.00,,,0.00,Rainwise IP-100,2013-02-09 08:50:00,
2013-02-09 03:55:00,9.3,8.0,29.29,East,90,6.0,14.0,92,0.00,,,0.00,Rainwise IP-100,2013-02-09 08:55:00,
2013-02-09 04:00:00,9.4,8.0,29.28,South,180,2.0,25.0,92,0.00,,,0.00,Rainwise IP-100,2013-02-09 09:00:00,
2013-02-09 04:05:00,9.5,8.0,29.28,WSW,247,11.0,17.0,92,0.00,,,0.00,Rainwise IP-100,2013-02-09 09:05:00,
2013-02-09 04:10:00,9.6,8.0,29.28,East,90,3.0,20.0,92,0.00,,,0.00,Rainwise IP-100,2013-02-09 09:10:00,
2013-02-09 04:15:00,9.7,8.0,29.29,ESE,112,4.0,16.0,92,0.00,,,0.00,Rainwise IP-100,2013-02-09 09:15:00,
2013-02-09 04:20:00,9.7,8.0,29.29,NW,315,7.0,14.0,92,0.00,,,0.00,Rainwise IP-100,2013-02-09 09:20:00,
2013-02-09 04:25:00,9.8,8.0,29.29,SE,135,2.0,12.0,92,0.00,,,0.00,Rainwise IP-100,2013-02-09 09:25:00,
2013-02-09 04:30:00,9.8,8.0,29.29,East,90,6.0,20.0,92,0.00,,,0.00,Rainwise IP-100,2013-02-09 09:30:00,
2013-02-09 04:35:00,9.8,8.0,29.28,NW,315,5.0,15.0,92,0.00,,,0.00,Rainwise IP-100,2013-02-09 09:35:00,
2013-02-09 04:40:00,9.8,8.0,29.29,WNW,292,7.0,21.0,92,0.00,,,0.00,Rainwise IP-100,2013-02-09 09:40:00,
2013-02-09 04:45:00,9.8,8.0,29.29,East,90,8.0,17.0,92,0.00,,,0.00,Rainwise IP-100,2013-02-09 09:45:00,
2013-02-09 04:50:00,9.8,8.0,29.28,North,360,11.0,19.0,92,0.00,,,0.00,Rainwise IP-100,2013-02-09 09:50:00,
2013-02-09 04:55:00,9.8,8.0,29.28,East,90,9.0,13.0,92,0.00,,,0.00,Rainwise IP-100,2013-02-09 09:55:00,
2013-02-09 05:00:00,9.9,8.0,29.29,ESE,112,4.0,17.0,92,0.00,,,0.00,Rainwise IP-100,2013-02-09 10:00:00,
2013-02-09 05:05:00,9.9,8.0,29.27,SSW,202,3.0,22.0,92,0.00,,,0.00,Rainwise IP-100,2013-02-09 10:05:00,
2013-02-09 05:10:00,9.9,8.0,29.29,East,90,0.0,12.0,92,0.00,,,0.00,Rainwise IP-100,2013-02-09 10:10:00,
2013-02-09 05:15:00,9.9,8.0,29.29,South,180,2.0,12.0,92,0.00,,,0.00,Rainwise IP-100,2013-02-09 10:15:00,
2013-02-09 05:20:00,9.9,8.0,29.26,North,360,7.0,14.0,92,0.00,,,0.00,Rainwise IP-100,2013-02-09 10:20:00,
2013-02-09 05:25:00,9.9,8.0,29.27,NNW,337,4.0,20.0,92,0.00,,,0.00,Rainwise IP-100,2013-02-09 10:25:00,
2013-02-09 05:30:00,9.8,8.0,29.27,NNW,337,8.0,12.0,92,0.00,,,0.00,Rainwise IP-100,2013-02-09 10:30:00,
2013-02-09 05:35:00,9.8,8.0,29.27,South,180,0.0,19.0,92,0.00,,,0.00,Rainwise IP-100,2013-02-09 10:35:00,
2013-02-09 05:40:00,9.8,8.0,29.28,WSW,247,6.0,11.0,92,0.00,,,0.00,Rainwise IP-100,2013-02-09 10:40:00,
2013-02-09 05:45:00,9.7,8.0,29.26,WNW,292,2.0,16.0,92,0.00,,,0.00,Rainwise IP-100,2013-02-09 10:45:00,
2013-02-09 05:50:00,9.7,8.0,29.25,NNW,337,4.0,13.0,92,0.00,,,0.00,Rainwise IP-100,2013-02-09 10:50:00,
2013-02-09 05:55:00,9.7,8.0,29.25,NW,315,2.0,20.0,92,0.00,,,0.00,Rainwise IP-100,2013-02-09 10:55:00,
2013-02-09 05:59:00,9.8,8.0,29.25,ESE,112,1.0,17.0,92,0.00,,,0.00,Rainwise IP-100,2013-02-09 10:59:00,
2013-02-09 06:04:00,9.8,8.0,29.25,WNW,292,6.0,18.0,92,0.00,,,0.00,Rainwise IP-100,2013-02-09 11:04:00,
2013-02-09 06:09:00,9.8,8.0,29.27,SW,225,3.0,19.0,92,0.00,,,0.00,Rainwise IP-100,2013-02-09 11:09:00,
2013-02-09 06:14:00,9.9,8.0,29.25,East,90,10.0,16.0,92,0.00,,,0.00,Rainwise IP-100,2013-02-09 11:14:00,
2013-02-09 06:19:00,9.9,8.0,29.27,East,90,2.0,14.0,92,0.00,,,0.00,Rainwise IP-100,2013-02-09 11:19:00,
2013-02-09 06:24:00,9.9,8.0,29.26,NNW,337,4.0,16.0,92,0.00,,,0.00,Rainwise IP-100,2013-02-09 11:24:00,
2013-02-09 06:29:00,10.1,8.0,29.27,WSW,247,9.0,12.0,92,0.00,,,0.00,Rainwise IP-100,2013-02-09 11:29:00,
2013-02-09 06:34:00,10.2,8.0,29.27,ESE,112,4.0,19.0,92,0.00,,,0.00,Rainwise IP-100,2013-02-09 11:34:00,
2013-02-09 06:39:00,10.2,8.0,29.27,NNW,337,1.0,15.0,92,0.00,,,0.00,Rainwise IP-100,2013-02-09 11:39:00,
2013-02-09 06:44:00,10.3,8.0,29.27,SW,225,4.0,24.0,92,0.00,,,0.00,Rainwise IP-100,2013-02-09 11:44:00,
2013-02-09 06:49:00,10.4,8.0,29.27,North,360,4.0,19.0,92,0.00,,,0.00,Rainwise IP-100,2013-02-09 11:49:00,
2013-02-09 06:54:00,10.4,8.0,29.26,North,360,3.0,14.0,92,0.00,,,0.00,Rainwise IP-100,2013-02-09 11:54:00,
2013-02-09 06:59:00,10.6,8.0,29.27,East,90,3.0,17.0,92,0.00,,,0.00,Rainwise IP-100,2013-02-09 11:59:00,
2013-02-09 07:04:00,10.6,8.0,29.27,ESE,112,1.0,18.0,92,0.00,,,0.00,Rainwise IP-100,2013-02-09 12:04:00,
2013-02-09 07:09:00,10.7,8.0,29.26,NNW,337,4.0,20.0,92,0.00,,,0.00,Rainwise IP-100,2013-02-09 12:09:00,
2013-02-09 07:14:00,10.7,8.0,29.27,North,360,2.0,19.0,92,0.00,,,0.00,Rainwise IP-100,2013-02-09 12:14:00,
2013-02-09 07:19:00,10.8,8.0,29.27,NNW,337,1.0,16.0,92,0.00,,,0.00,Rainwise IP-100,2013-02-09 12:19:00,
2013-02-09 07:24:00,10.8,8.0,29.26,WNW,292,4.0,19.0,92,0.00,,,0.00,Rainwise IP-100,2013-02-09 12:24:00,
2013-02-09 07:29:00,10.9,8.0,29.26,NNW,337,16.0,17.0,92,0.00,,,0.00,Rainwise IP-100,2013-02-09 12:29:00,
2013-02-09 07:34:00,10.9,8.0,29.26,NW,315,2.0,19.0,92,0.00,,,0.00,Rainwise IP-100,2013-02-09 12:34:00,
2013-02-09 07:39:00,11.1,11.0,29.26,North,360,5.0,17.0,93,0.00,,,0.00,Rainwise IP-100,2013-02-09 12:39:00,
2013-02-09 07:44:00,11.1,11.0,29.26,West,270,9.0,16.0,93,0.00,,,0.00,Rainwise IP-100,2013-02-09 12:44:00,
2013-02-09 07:49:00,11.1,11.0,29.25,WNW,292,5.0,18.0,93,0.00,,,0.00,Rainwise IP-100,2013-02-09 12:49:00,
2013-02-09 07:54:00,11.2,11.0,29.26,NNW,337,1.0,21.0,93,0.00,,,0.00,Rainwise IP-100,2013-02-09 12:54:00,
2013-02-09 07:59:00,11.2,11.0,29.26,West,270,3.0,14.0,93,0.00,,,0.00,Rainwise IP-100,2013-02-09 12:59:00,
2013-02-09 08:04:00,11.3,11.0,29.25,NW,315,4.0,13.0,93,0.00,,,0.00,Rainwise IP-100,2013-02-09 13:04:00,
2013-02-09 08:09:00,11.3,11.0,29.26,WNW,292,9.0,16.0,93,0.00,,,0.00,Rainwise IP-100,2013-02-09 13:09:00,
2013-02-09 08:14:00,11.4,11.0,29.26,North,360,4.0,16.0,93,0.00,,,0.00,Rainwise IP-100,2013-02-09 13:14:00,
2013-02-09 08:19:00,11.5,11.0,29.26,North,360,7.0,16.0,93,0.00,,,0.00,Rainwise IP-100,2013-02-09 13:19:00,
2013-02-09 08:24:00,11.5,11.0,29.26,WSW,247,2.0,22.0,93,0.00,,,0.00,Rainwise IP-100,2013-02-09 13:24:00,
2013-02-09 08:29:00,11.6,11.0,29.25,NNW,337,6.0,22.0,93,0.00,,,0.00,Rainwise IP-100,2013-02-09 13:29:00,
2013-02-09 08:34:00,11.7,11.0,29.25,North,360,4.0,19.0,93,0.00,,,0.00,Rainwise IP-100,2013-02-09 13:34:00,
2013-02-09 08:39:00,11.8,11.0,29.26,NNW,337,16.0,18.0,93,0.00,,,0.00,Rainwise IP-100,2013-02-09 13:39:00,
2013-02-09 08:44:00,11.9,11.0,29.25,North,360,9.0,16.0,93,0.00,,,0.00,Rainwise IP-100,2013-02-09 13:44:00,
2013-02-09 08:49:00,12.1,11.0,29.26,NW,315,7.0,17.0,93,0.00,,,0.00,Rainwise IP-100,2013-02-09 13:49:00,
2013-02-09 08:54:00,12.2,11.0,29.26,NNW,337,2.0,19.0,93,0.00,,,0.00,Rainwise IP-100,2013-02-09 13:54:00,
2013-02-09 08:59:00,12.4,11.0,29.25,North,360,4.0,18.0,93,0.00,,,0.00,Rainwise IP-100,2013-02-09 13:59:00,
2013-02-09 09:04:00,12.5,11.0,29.26,South,180,5.0,19.0,93,0.00,,,0.00,Rainwise IP-100,2013-02-09 14:04:00,
2013-02-09 09:09:00,12.7,11.0,29.25,SSW,202,2.0,17.0,93,0.00,,,0.00,Rainwise IP-100,2013-02-09 14:09:00,
2013-02-09 09:14:00,12.9,11.0,29.26,East,90,2.0,16.0,93,0.00,,,0.00,Rainwise IP-100,2013-02-09 14:14:00,
2013-02-09 09:19:00,13.3,11.0,29.26,NW,315,3.0,14.0,93,0.00,,,0.00,Rainwise IP-100,2013-02-09 14:19:00,
2013-02-09 09:24:00,13.5,11.0,29.26,North,360,4.0,13.0,93,0.00,,,0.00,Rainwise IP-100,2013-02-09 14:24:00,
2013-02-09 09:29:00,13.6,11.0,29.26,NW,315,6.0,25.0,93,0.00,,,0.00,Rainwise IP-100,2013-02-09 14:29:00,
2013-02-09 09:34:00,13.6,11.0,29.26,SW,225,1.0,16.0,93,0.00,,,0.00,Rainwise IP-100,2013-02-09 14:34:00,
2013-02-09 09:39:00,13.8,11.0,29.26,WNW,292,7.0,22.0,93,0.00,,,0.00,Rainwise IP-100,2013-02-09 14:39:00,
2013-02-09 09:44:00,13.9,11.0,29.26,WSW,247,1.0,16.0,93,0.00,,,0.00,Rainwise IP-100,2013-02-09 14:44:00,
2013-02-09 09:49:00,13.9,11.0,29.25,NNW,337,4.0,15.0,93,0.00,,,0.00,Rainwise IP-100,2013-02-09 14:49:00,
2013-02-09 09:54:00,14.2,11.0,29.26,SSW,202,1.0,12.0,93,0.00,,,0.00,Rainwise IP-100,2013-02-09 14:54:00,
2013-02-09 09:59:00,14.5,14.0,29.27,NW,315,5.0,14.0,93,0.00,,,0.00,Rainwise IP-100,2013-02-09 14:59:00,
2013-02-09 10:04:00,14.6,14.0,29.26,ESE,112,2.0,21.0,93,0.00,,,0.00,Rainwise IP-100,2013-02-09 15:04:00,
2013-02-09 10:09:00,14.8,14.0,29.28,NW,315,1.0,18.0,93,0.00,,,0.00,Rainwise IP-100,2013-02-09 15:09:00,
2013-02-09 10:14:00,15.1,14.0,29.28,North,360,2.0,17.0,93,0.00,,,0.00,Rainwise IP-100,2013-02-09 15:14:00,
2013-02-09 10:19:00,15.2,14.0,29.28,NNW,337,4.0,17.0,93,0.00,,,0.00,Rainwise IP-100,2013-02-09 15:19:00,
2013-02-09 10:24:00,15.3,14.0,29.28,NNW,337,6.0,16.0,93,0.00,,,0.00,Rainwise IP-100,2013-02-09 15:24:00,
2013-02-09 10:29:00,15.3,14.0,29.28,East,90,14.0,19.0,93,0.00,,,0.00,Rainwise IP-100,2013-02-09 15:29:00,
2013-02-09 10:34:00,15.3,14.0,29.28,NNW,337,3.0,14.0,93,0.00,,,0.00,Rainwise IP-100,2013-02-09 15:34:00,
2013-02-09 10:39:00,15.3,14.0,29.29,WNW,292,1.0,31.0,93,0.00,,,0.00,Rainwise IP-100,2013-02-09 15:39:00,
2013-02-09 10:44:00,15.4,14.0,29.29,West,270,2.0,19.0,92,0.00,,,0.00,Rainwise IP-100,2013-02-09 15:44:00,
2013-02-09 10:49:00,15.5,14.0,29.30,NNW,337,2.0,16.0,93,0.00,,,0.00,Rainwise IP-100,2013-02-09 15:49:00,
2013-02-09 10:54:00,15.5,14.0,29.30,NNW,337,2.0,16.0,93,0.00,,,0.00,Rainwise IP-100,2013-02-09 15:54:00,
2013-02-09 10:59:00,15.6,14.0,29.28,NNW,337,7.0,20.0,92,0.00,,,0.00,Rainwise IP-100,2013-02-09 15:59:00,
2013-02-09 11:04:00,15.6,14.0,29.29,North,360,1.0,23.0,92,0.00,,,0.00,Rainwise IP-100,2013-02-09 16:04:00,
2013-02-09 11:09:00,15.6,14.0,29.30,East,90,2.0,19.0,92,0.00,,,0.00,Rainwise IP-100,2013-02-09 16:09:00,
2013-02-09 11:14:00,15.7,14.0,29.30,North,360,10.0,24.0,92,0.00,,,0.00,Rainwise IP-100,2013-02-09 16:14:00,
2013-02-09 11:19:00,15.6,14.0,29.28,North,360,1.0,21.0,92,0.00,,,0.00,Rainwise IP-100,2013-02-09 16:19:00,
2013-02-09 11:24:00,15.8,14.0,29.28,SSE,157,4.0,17.0,92,0.00,,,0.00,Rainwise IP-100,2013-02-09 16:24:00,
2013-02-09 11:29:00,15.9,14.0,29.29,SE,135,4.0,16.0,93,0.00,,,0.00,Rainwise IP-100,2013-02-09 16:29:00,
2013-02-09 11:34:00,15.9,14.0,29.30,NW,315,11.0,27.0,93,0.00,,,0.00,Rainwise IP-100,2013-02-09 16:34:00,
2013-02-09 11:39:00,16.1,14.0,29.29,NNW,337,7.0,17.0,92,0.00,,,0.00,Rainwise IP-100,2013-02-09 16:39:00,
2013-02-09 11:44:00,16.2,14.0,29.27,North,360,6.0,19.0,92,0.00,,,0.00,Rainwise IP-100,2013-02-09 16:44:00,
2013-02-09 11:49:00,16.3,14.0,29.30,NW,315,6.0,17.0,92,0.00,,,0.00,Rainwise IP-100,2013-02-09 16:49:00,
2013-02-09 11:54:00,16.4,14.0,29.28,ESE,112,2.0,16.0,93,0.00,,,0.00,Rainwise IP-100,2013-02-09 16:54:00,
2013-02-09 11:59:00,16.2,14.0,29.29,NW,315,2.0,24.0,92,0.00,,,0.00,Rainwise IP-100,2013-02-09 16:59:00,
2013-02-09 12:04:00,16.5,16.0,29.27,ESE,112,2.0,12.0,92,0.00,,,0.00,Rainwise IP-100,2013-02-09 17:04:00,
2013-02-09 12:09:00,16.5,16.0,29.28,ESE,112,5.0,17.0,92,0.00,,,0.00,Rainwise IP-100,2013-02-09 17:09:00,
2013-02-09 12:14:00,16.5,16.0,29.29,WSW,247,4.0,17.0,93,0.00,,,0.00,Rainwise IP-100,2013-02-09 17:14:00,
2013-02-09 12:19:00,16.3,14.0,29.29,NNW,337,6.0,18.0,93,0.00,,,0.00,Rainwise IP-100,2013-02-09 17:19:00,
2013-02-09 12:24:00,16.2,14.0,29.30,ESE,112,2.0,17.0,93,0.00,,,0.00,Rainwise IP-100,2013-02-09 17:24:00,
2013-02-09 12:29:00,16.1,14.0,29.30,WSW,247,7.0,21.0,93,0.00,,,0.00,Rainwise IP-100,2013-02-09 17:29:00,
2013-02-09 12:34:00,15.9,14.0,29.30,East,90,17.0,27.0,93,0.00,,,0.00,Rainwise IP-100,2013-02-09 17:34:00,
2013-02-09 12:39:00,16.2,14.0,29.30,NW,315,3.0,19.0,93,0.00,,,0.00,Rainwise IP-100,2013-02-09 17:39:00,
2013-02-09 12:44:00,15.9,14.0,29.30,NNW,337,8.0,20.0,93,0.00,,,0.00,Rainwise IP-100,2013-02-09 17:44:00,
2013-02-09 12:49:00,15.9,14.0,29.31,WNW,292,6.0,16.0,93,0.00,,,0.00,Rainwise IP-100,2013-02-09 17:49:00,
2013-02-09 12:54:00,15.9,14.0,29.31,NW,315,5.0,12.0,93,0.00,,,0.00,Rainwise IP-100,2013-02-09 17:54:00,
2013-02-09 12:59:00,15.9,14.0,29.31,North,360,11.0,14.0,93,0.00,,,0.00,Rainwise IP-100,2013-02-09 17:59:00,
2013-02-09 13:04:00,15.9,14.0,29.31,NNW,337,1.0,18.0,93,0.00,,,0.00,Rainwise IP-100,2013-02-09 18:04:00,
2013-02-09 13:09:00,15.9,14.0,29.32,North,360,5.0,15.0,93,0.00,,,0.00,Rainwise IP-100,2013-02-09 18:09:00,
2013-02-09 13:14:00,15.7,14.0,29.32,West,270,3.0,13.0,93,0.00,,,0.00,Rainwise IP-100,2013-02-09 18:14:00,
2013-02-09 13:19:00,14.9,14.0,29.32,North,360,9.0,20.0,93,0.00,,,0.00,Rainwise IP-100,2013-02-09 18:19:00,
2013-02-09 13:24:00,14.5,14.0,29.32,WNW,292,2.0,17.0,93,0.00,,,0.00,Rainwise IP-100,2013-02-09 18:24:00,
2013-02-09 13:29:00,14.3,11.0,29.32,East,90,10.0,14.0,93,0.00,,,0.00,Rainwise IP-100,2013-02-09 18:29:00,
2013-02-09 13:34:00,14.1,11.0,29.32,NNW,337,6.0,22.0,93,0.00,,,0.00,Rainwise IP-100,2013-02-09 18:34:00,
2013-02-09 13:39:00,13.9,11.0,29.32,NNW,337,11.0,18.0,93,0.00,,,0.00,Rainwise IP-100,2013-02-09 18:39:00,
2013-02-09 13:44:00,13.7,11.0,29.33,West,270,6.0,24.0,93,0.00,,,0.00,Rainwise IP-100,2013-02-09 18:44:00,
2013-02-09 13:49:00,13.8,11.0,29.34,East,90,4.0,17.0,93,0.00,,,0.00,Rainwise IP-100,2013-02-09 18:49:00,
2013-02-09 13:54:00,13.8,11.0,29.34,NW,315,2.0,15.0,93,0.00,,,0.00,Rainwise IP-100,2013-02-09 18:54:00,
2013-02-09 13:59:00,13.8,11.0,29.33,East,90,6.0,22.0,93,0.00,,,0.00,Rainwise IP-100,2013-02-09 18:59:00,
2013-02-09 14:04:00,13.9,11.0,29.34,NW,315,2.0,14.0,93,0.00,,,0.00,Rainwise IP-100,2013-02-09 19:04:00,
2013-02-09 14:09:00,13.8,11.0,29.34,NNW,337,2.0,17.0,93,0.00,,,0.00,Rainwise IP-100,2013-02-09 19:09:00,
2013-02-09 14:14:00,13.8,11.0,29.35,WSW,247,2.0,19.0,93,0.00,,,0.00,Rainwise IP-100,2013-02-09 19:14:00,
2013-02-09 14:19:00,13.9,11.0,29.35,NW,315,4.0,19.0,93,0.00,,,0.00,Rainwise IP-100,2013-02-09 19:19:00,
2013-02-09 14:24:00,13.8,11.0,29.35,WNW,292,4.0,17.0,93,0.00,,,0.00,Rainwise IP-100,2013-02-09 19:24:00,
2013-02-09 14:29:00,13.8,11.0,29.34,East,90,2.0,21.0,93,0.00,,,0.00,Rainwise IP-100,2013-02-09 19:29:00,
2013-02-09 14:34:00,13.9,11.0,29.36,NNW,337,8.0,14.0,93,0.00,,,0.00,Rainwise IP-100,2013-02-09 19:34:00,
2013-02-09 14:39:00,13.9,11.0,29.36,NNW,337,2.0,19.0,93,0.00,,,0.00,Rainwise IP-100,2013-02-09 19:39:00,
2013-02-09 14:44:00,13.8,11.0,29.36,ESE,112,5.0,18.0,93,0.00,,,0.00,Rainwise IP-100,2013-02-09 19:44:00,
2013-02-09 14:49:00,13.7,11.0,29.36,NNW,337,4.0,14.0,93,0.00,,,0.00,Rainwise IP-100,2013-02-09 19:49:00,
2013-02-09 14:54:00,13.8,11.0,29.38,North,360,1.0,20.0,93,0.00,,,0.00,Rainwise IP-100,2013-02-09 19:54:00,
2013-02-09 14:59:00,13.7,11.0,29.37,NNW,337,6.0,22.0,93,0.00,,,0.00,Rainwise IP-100,2013-02-09 19:59:00,
2013-02-09 15:04:00,13.6,11.0,29.37,North,360,14.0,22.0,93,0.00,,,0.00,Rainwise IP-100,2013-02-09 20:04:00,
2013-02-09 15:09:00,13.6,11.0,29.38,WNW,292,1.0,19.0,93,0.00,,,0.00,Rainwise IP-100,2013-02-09 20:09:00,
2013-02-09 15:14:00,13.6,11.0,29.39,NW,315,12.0,17.0,93,0.00,,,0.00,Rainwise IP-100,2013-02-09 20:14:00,
2013-02-09 15:19:00,13.6,11.0,29.39,SSE,157,1.0,19.0,93,0.00,,,0.00,Rainwise IP-100,2013-02-09 20:19:00,
2013-02-09 15:24:00,13.6,11.0,29.40,North,360,12.0,15.0,93,0.00,,,0.00,Rainwise IP-100,2013-02-09 20:24:00,
2013-02-09 15:29:00,13.5,11.0,29.39,North,360,6.0,19.0,93,0.00,,,0.00,Rainwise IP-100,2013-02-09 20:29:00,
2013-02-09 15:34:00,13.4,11.0,29.40,NNW,337,4.0,16.0,93,0.00,,,0.00,Rainwise IP-100,2013-02-09 20:34:00,
2013-02-09 15:39:00,13.4,11.0,29.40,North,360,12.0,18.0,93,0.00,,,0.00,Rainwise IP-100,2013-02-09 20:39:00,
2013-02-09 15:44:00,13.3,11.0,29.40,WNW,292,4.0,22.0,93,0.00,,,0.00,Rainwise IP-100,2013-02-09 20:44:00,
2013-02-09 15:49:00,13.3,11.0,29.42,WNW,292,11.0,16.0,93,0.00,,,0.00,Rainwise IP-100,2013-02-09 20:49:00,
2013-02-09 15:54:00,13.3,11.0,29.42,WNW,292,9.0,26.0,93,0.00,,,0.00,Rainwise IP-100,2013-02-09 20:54:00,
2013-02-09 15:59:00,13.2,11.0,29.42,SSW,202,3.0,21.0,93,0.00,,,0.00,Rainwise IP-100,2013-02-09 20:59:00,
2013-02-09 16:04:00,13.3,11.0,29.42,North,360,2.0,19.0,93,0.00,,,0.00,Rainwise IP-100,2013-02-09 21:04:00,
2013-02-09 16:09:00,13.3,11.0,29.43,SSW,202,2.0,16.0,93,0.00,,,0.00,Rainwise IP-100,2013-02-09 21:09:00,
2013-02-09 16:14:00,13.3,11.0,29.43,North,360,6.0,13.0,93,0.00,,,0.00,Rainwise IP-100,2013-02-09 21:14:00,
2013-02-09 16:19:00,13.3,11.0,29.43,WNW,292,6.0,20.0,93,0.00,,,0.00,Rainwise IP-100,2013-02-09 21:19:00,
2013-02-09 16:24:00,13.3,11.0,29.44,SE,135,1.0,18.0,93,0.00,,,0.00,Rainwise IP-100,2013-02-09 21:24:00,
2013-02-09 16:29:00,13.3,11.0,29.43,SW,225,6.0,17.0,93,0.00,,,0.00,Rainwise IP-100,2013-02-09 21:29:00,
2013-02-09 16:34:00,13.3,11.0,29.44,West,270,2.0,20.0,93,0.00,,,0.00,Rainwise IP-100,2013-02-09 21:34:00,
2013-02-09 16:39:00,13.3,11.0,29.44,North,360,2.0,21.0,93,0.00,,,0.00,Rainwise IP-100,2013-02-09 21:39:00,
2013-02-09 16:44:00,13.3,11.0,29.43,ESE,112,1.0,18.0,93,0.00,,,0.00,Rainwise IP-100,2013-02-09 21:44:00,
2013-02-09 16:49:00,13.3,11.0,29.43,West,270,7.0,13.0,93,0.00,,,0.00,Rainwise IP-100,2013-02-09 21:49:00,
2013-02-09 16:54:00,13.4,11.0,29.46,North,360,5.0,17.0,93,0.00,,,0.00,Rainwise IP-100,2013-02-09 21:54:00,
2013-02-09 16:59:00,13.4,11.0,29.46,WNW,292,6.0,22.0,93,0.00,,,0.00,Rainwise IP-100,2013-02-09 21:59:00,
2013-02-09 17:04:00,13.4,11.0,29.46,NNW,337,12.0,16.0,93,0.00,,,0.00,Rainwise IP-100,2013-02-09 22:04:00,
2013-02-09 17:09:00,13.4,11.0,29.46,ESE,112,4.0,15.0,93,0.00,,,0.00,Rainwise IP-100,2013-02-09 22:09:00,
2013-02-09 17:14:00,13.4,11.0,29.46,WSW,247,1.0,14.0,93,0.00,,,0.00,Rainwise IP-100,2013-02-09 22:14:00,
2013-02-09 17:19:00,13.3,11.0,29.47,North,360,7.0,17.0,93,0.00,,,0.00,Rainwise IP-100,2013-02-09 22:19:00,
2013-02-09 17:24:00,13.3,11.0,29.48,North,360,4.0,19.0,93,0.00,,,0.00,Rainwise IP-100,2013-02-09 22:24:00,
2013-02-09 17:29:00,13.4,11.0,29.46,NNW,337,4.0,21.0,93,0.00,,,0.00,Rainwise IP-100,2013-02-09 22:29:00,
2013-02-09 17:34:00,13.4,11.0,29.48,WNW,292,8.0,17.0,93,0.00,,,0.00,Rainwise IP-100,2013-02-09 22:34:00,
2013-02-09 17:39:00,13.4,11.0,29.48,ESE,112,4.0,17.0,93,0.00,,,0.00,Rainwise IP-100,2013-02-09 22:39:00,
2013-02-09 17:44:00,13.4,11.0,29.47,NNW,337,4.0,20.0,93,0.00,,,0.00,Rainwise IP-100,2013-02-09 22:44:00,
2013-02-09 17:49:00,13.4,11.0,29.49,North,360,3.0,17.0,93,0.00,,,0.00,Rainwise IP-100,2013-02-09 22:49:00,
2013-02-09 17:54:00,13.4,11.0,29.49,North,360,5.0,19.0,93,0.00,,,0.00,Rainwise IP-100,2013-02-09 22:54:00,
2013-02-09 17:59:00,13.5,11.0,29.50,WNW,292,4.0,17.0,93,0.00,,,0.00,Rainwise IP-100,2013-02-09 22:59:00,
2013-02-09 18:04:00,13.6,11.0,29.50,East,90,1.0,13.0,93,0.00,,,0.00,Rainwise IP-100,2013-02-09 23:04:00,
2013-02-09 18:09:00,13.6,11.0,29.50,North,360,1.0,19.0,93,0.00,,,0.00,Rainwise IP-100,2013-02-09 23:09:00,
2013-02-09 18:14:00,13.7,11.0,29.50,NNW,337,11.0,19.0,93,0.00,,,0.00,Rainwise IP-100,2013-02-09 23:14:00,
2013-02-09 18:19:00,13.8,11.0,29.51,North,360,2.0,22.0,93,0.00,,,0.00,Rainwise IP-100,2013-02-09 23:19:00,
2013-02-09 18:24:00,13.9,11.0,29.50,WSW,247,2.0,16.0,93,0.00,,,0.00,Rainwise IP-100,2013-02-09 23:24:00,
2013-02-09 18:29:00,13.9,11.0,29.51,NW,315,11.0,16.0,93,0.00,,,0.00,Rainwise IP-100,2013-02-09 23:29:00,
2013-02-09 18:34:00,14.1,11.0,29.52,NNW,337,9.0,15.0,93,0.00,,,0.00,Rainwise IP-100,2013-02-09 23:34:00,
2013-02-09 18:39:00,14.3,11.0,29.52,North,360,2.0,17.0,93,0.00,,,0.00,Rainwise IP-100,2013-02-09 23:39:00,
2013-02-09 18:44:00,14.4,11.0,29.52,North,360,6.0,16.0,93,0.00,,,0.00,Rainwise IP-100,2013-02-09 23:44:00,
2013-02-09 18:49:00,14.4,11.0,29.53,North,360,3.0,19.0,93,0.00,,,0.00,Rainwise IP-100,2013-02-09 23:49:00,
2013-02-09 18:54:00,14.5,14.0,29.53,North,360,3.0,13.0,93,0.00,,,0.00,Rainwise IP-100,2013-02-09 23:54:00,
2013-02-09 18:59:00,14.6,14.0,29.54,WNW,292,5.0,19.0,93,0.00,,,0.00,Rainwise IP-100,2013-02-09 23:59:00,
2013-02-09 19:04:00,14.7,14.0,29.54,NNW,337,6.0,18.0,93,0.00,,,0.00,Rainwise IP-100,2013-02-10 00:04:00,
2013-02-09 19:09:00,14.8,14.0,29.55,WSW,247,7.0,16.0,93,0.00,,,0.00,Rainwise IP-100,2013-02-10 00:09:00,
2013-02-09 19:14:00,14.9,14.0,29.54,NW,315,3.0,14.0,93,0.00,,,0.00,Rainwise IP-100,2013-02-10 00:14:00,
2013-02-09 19:19:00,15.1,14.0,29.55,North,360,11.0,11.0,93,0.00,,,0.00,Rainwise IP-100,2013-02-10 00:19:00,
2013-02-09 19:24:00,14.9,14.0,29.55,NW,315,6.0,17.0,93,0.00,,,0.00,Rainwise IP-100,2013-02-10 00:24:00,
2013-02-09 19:29:00,14.9,14.0,29.55,North,360,5.0,14.0,93,0.00,,,0.00,Rainwise IP-100,2013-02-10 00:29:00,
2013-02-09 19:34:00,14.8,14.0,29.55,North,360,1.0,24.0,93,0.00,,,0.00,Rainwise IP-100,2013-02-10 00:34:00,
2013-02-09 19:39:00,14.9,14.0,29.56,NNW,337,8.0,21.0,93,0.00,,,0.00,Rainwise IP-100,2013-02-10 00:39:00,
2013-02-09 19:44:00,14.9,14.0,29.56,NW,315,5.0,17.0,93,0.00,,,0.00,Rainwise IP-100,2013-02-10 00:44:00,
2013-02-09 19:49:00,14.8,14.0,29.56,SE,135,3.0,15.0,93,0.00,,,0.00,Rainwise IP-100,2013-02-10 00:49:00,
2013-02-09 19:54:00,14.8,14.0,29.56,North,360,21.0,21.0,93,0.00,,,0.00,Rainwise IP-100,2013-02-10 00:54:00,
2013-02-09 19:59:00,14.9,14.0,29.57,NNW,337,7.0,21.0,93,0.00,,,0.00,Rainwise IP-100,2013-02-10 00:59:00,
2013-02-09 20:04:00,15.1,14.0,29.57,NNW,337,4.0,14.0,93,0.00,,,0.00,Rainwise IP-100,2013-02-10 01:04:00,
2013-02-09 20:09:00,15.2,14.0,29.57,North,360,7.0,23.0,93,0.00,,,0.00,Rainwise IP-100,2013-02-10 01:09:00,
2013-02-09 20:14:00,14.9,14.0,29.57,North,360,7.0,19.0,92,0.00,,,0.00,Rainwise IP-100,2013-02-10 01:14:00,
2013-02-09 20:19:00,15.1,14.0,29.57,East,90,2.0,16.0,93,0.00,,,0.00,Rainwise IP-100,2013-02-10 01:19:00,
2013-02-09 20:24:00,15.1,14.0,29.58,NNW,337,2.0,17.0,91,0.00,,,0.00,Rainwise IP-100,2013-02-10 01:24:00,
2013-02-09 20:29:00,15.1,14.0,29.58,East,90,1.0,16.0,91,0.00,,,0.00,Rainwise IP-100,2013-02-10 01:29:00,
2013-02-09 20:34:00,15.2,14.0,29.59,ESE,112,9.0,18.0,91,0.00,,,0.00,Rainwise IP-100,2013-02-10 01:34:00,
2013-02-09 20:39:00,15.3,14.0,29.59,North,360,1.0,11.0,91,0.00,,,0.00,Rainwise IP-100,2013-02-10 01:39:00,
2013-02-09 20:44:00,15.4,14.0,29.58,NNW,337,5.0,19.0,90,0.00,,,0.00,Rainwise IP-100,2013-02-10 01:44:00,
2013-02-09 20:49:00,15.5,14.0,29.59,West,270,3.0,19.0,90,0.00,,,0.00,Rainwise IP-100,2013-02-10 01:49:00,
2013-02-09 20:54:00,15.6,14.0,29.59,West,270,4.0,21.0,89,0.00,,,0.00,Rainwise IP-100,2013-02-10 01:54:00,
2013-02-09 20:59:00,15.6,14.0,29.59,NW,315,4.0,15.0,88,0.00,,,0.00,Rainwise IP-100,2013-02-10 01:59:00,
2013-02-09 21:04:00,15.7,14.0,29.60,North,360,2.0,16.0,89,0.00,,,0.00,Rainwise IP-100,2013-02-10 02:04:00,
2013-02-09 21:09:00,15.5,14.0,29.59,ESE,112,4.0,16.0,89,0.00,,,0.00,Rainwise IP-100,2013-02-10 02:09:00,
2013-02-09 21:14:00,15.5,14.0,29.59,WNW,292,10.0,21.0,88,0.00,,,0.00,Rainwise IP-100,2013-02-10 02:14:00,
2013-02-09 21:19:00,15.6,14.0,29.60,NNW,337,8.0,17.0,88,0.00,,,0.00,Rainwise IP-100,2013-02-10 02:19:00,
2013-02-09 21:24:00,15.5,14.0,29.59,NW,315,2.0,14.0,88,0.00,,,0.00,Rainwise IP-100,2013-02-10 02:24:00,
2013-02-09 21:29:00,15.4,14.0,29.59,NW,315,4.0,19.0,88,0.00,,,0.00,Rainwise IP-100,2013-02-10 02:29:00,
2013-02-09 21:34:00,15.5,14.0,29.60,NW,315,2.0,18.0,88,0.00,,,0.00,Rainwise IP-100,2013-02-10 02:34:00,
2013-02-09 21:39:00,15.5,14.0,29.60,NNW,337,1.0,23.0,88,0.00,,,0.00,Rainwise IP-100,2013-02-10 02:39:00,
2013-02-09 21:44:00,15.6,14.0,29.60,WNW,292,7.0,12.0,89,0.00,,,0.00,Rainwise IP-100,2013-02-10 02:44:00,
2013-02-09 21:49:00,15.6,14.0,29.61,ESE,112,2.0,19.0,90,0.00,,,0.00,Rainwise IP-100,2013-02-10 02:49:00,
2013-02-09 21:54:00,15.6,14.0,29.61,North,360,3.0,12.0,88,0.00,,,0.00,Rainwise IP-100,2013-02-10 02:54:00,
2013-02-09 21:59:00,15.6,14.0,29.61,NNW,337,0.0,18.0,90,0.00,,,0.00,Rainwise IP-100,2013-02-10 02:59:00,
2013-02-09 22:04:00,15.6,14.0,29.62,North,360,8.0,16.0,89,0.00,,,0.00,Rainwise IP-100,2013-02-10 03:04:00,
2013-02-09 22:09:00,15.8,14.0,29.62,East,90,4.0,17.0,90,0.00,,,0.00,Rainwise IP-100,2013-02-10 03:09:00,
2013-02-09 22:14:00,15.8,14.0,29.63,North,360,6.0,13.0,90,0.00,,,0.00,Rainwise IP-100,2013-02-10 03:14:00,
2013-02-09 22:19:00,15.8,14.0,29.62,WNW,292,3.0,20.0,88,0.00,,,0.00,Rainwise IP-100,2013-02-10 03:19:00,
2013-02-09 22:24:00,15.8,14.0,29.62,NNW,337,4.0,19.0,88,0.00,,,0.00,Rainwise IP-100,2013-02-10 03:24:00,
2013-02-09 22:29:00,15.9,14.0,29.63,WNW,292,7.0,16.0,88,0.00,,,0.00,Rainwise IP-100,2013-02-10 03:29:00,
2013-02-09 22:34:00,15.9,14.0,29.63,North,360,7.0,27.0,88,0.00,,,0.00,Rainwise IP-100,2013-02-10 03:34:00,
2013-02-09 22:39:00,15.9,14.0,29.63,North,360,11.0,19.0,88,0.00,,,0.00,Rainwise IP-100,2013-02-10 03:39:00,
2013-02-09 22:44:00,15.9,14.0,29.63,NNW,337,12.0,17.0,88,0.00,,,0.00,Rainwise IP-100,2013-02-10 03:44:00,
2013-02-09 22:49:00,15.8,14.0,29.63,SSW,202,2.0,17.0,88,0.00,,,0.00,Rainwise IP-100,2013-02-10 03:49:00,
2013-02-09 22:54:00,15.9,14.0,29.63,North,360,13.0,16.0,91,0.00,,,0.00,Rainwise IP-100,2013-02-10 03:54:00,
2013-02-09 22:59:00,16.1,14.0,29.64,North,360,4.0,13.0,91,0.00,,,0.00,Rainwise IP-100,2013-02-10 03:59:00,
2013-02-09 23:04:00,15.9,14.0,29.64,North,360,9.0,13.0,90,0.00,,,0.00,Rainwise IP-100,2013-02-10 04:04:00,
2013-02-09 23:09:00,15.9,14.0,29.65,WNW,292,7.0,9.0,90,0.00,,,0.00,Rainwise IP-100,2013-02-10 04:09:00,
2013-02-09 23:14:00,15.9,14.0,29.65,SSW,202,2.0,12.0,92,0.00,,,0.00,Rainwise IP-100,2013-02-10 04:14:00,
2013-02-09 23:19:00,15.9,14.0,29.65,NW,315,6.0,16.0,89,0.00,,,0.00,Rainwise IP-100,2013-02-10 04:19:00,
2013-02-09 23:24:00,15.9,14.0,29.65,West,270,3.0,15.0,88,0.00,,,0.00,Rainwise IP-100,2013-02-10 04:24:00,
2013-02-09 23:29:00,15.8,14.0,29.65,SW,225,3.0,11.0,89,0.00,,,0.00,Rainwise IP-100,2013-02-10 04:29:00,
2013-02-09 23:34:00,15.8,14.0,29.66,NW,315,7.0,21.0,89,0.00,,,0.00,Rainwise IP-100,2013-02-10 04:34:00,
2013-02-09 23:39:00,15.9,14.0,29.66,NNW,337,2.0,12.0,89,0.00,,,0.00,Rainwise IP-100,2013-02-10 04:39:00,
2013-02-09 23:44:00,15.9,14.0,29.66,NNW,337,2.0,12.0,89,0.00,,,0.00,Rainwise IP-100,2013-02-10 04:44:00,
2013-02-09 23:49:00,15.8,14.0,29.65,North,360,9.0,15.0,88,0.00,,,0.00,Rainwise IP-100,2013-02-10 04:49:00,
2013-02-09 23:54:00,15.9,14.0,29.66,North,360,6.0,12.0,88,0.00,,,0.00,Rainwise IP-100,2013-02-10 04:54:00,
2013-02-09 23:59:00,15.9,14.0,29.66,WSW,247,4.0,14.0,88,0.00,,,0.00,Rainwise IP-100,2013-02-10 04:59:00,